| time (UTC) | temp F | wind direction | speed knots | gust knots | rain 1hr in | rain 24hr in | rain mn in | humidity % | barometer mb |
| 20260507095610 | 52 | 234 | 3.5 | 20.9 | 0.00 | 0.17 | 0.00 | 84 | 1010.5 |
| 20260507095405 | 51 | 230 | 7.0 | 20.9 | 0.00 | 0.17 | 0.00 | 84 | 1010.5 |
| 20260507094910 | 51 | 228 | 10.4 | 20.9 | 0.00 | 0.17 | 0.00 | 84 | 1010.5 |
| 20260507094405 | 51 | 222 | 7.8 | 16.5 | 0.00 | 0.17 | 0.00 | 85 | 1010.4 |
| 20260507093507 | 51 | 229 | 7.8 | 16.5 | 0.00 | 0.17 | 0.00 | 87 | 1010.2 |
| 20260507093405 | 51 | 234 | 7.8 | 16.5 | 0.00 | 0.17 | 0.00 | 87 | 1010.2 |
| 20260507092405 | 50 | 237 | 7.0 | 21.7 | 0.00 | 0.17 | 0.00 | 89 | 1010.2 |
| 20260507091405 | 51 | 216 | 7.8 | 16.5 | 0.00 | 0.17 | 0.00 | 88 | 1010.1 |
| 20260507090710 | 51 | 208 | 7.0 | 14.8 | 0.00 | 0.17 | 0.00 | 87 | 1010.1 |
| 20260507090405 | 51 | 230 | 7.8 | 16.5 | 0.00 | 0.17 | 0.00 | 87 | 1010.0 |
| 20260507090010 | 51 | 240 | 7.0 | 16.5 | 0.00 | 0.17 | 0.00 | 87 | 1009.9 |
| 20260507085405 | 51 | 238 | 7.8 | 17.4 | 0.00 | 0.17 | 0.00 | 88 | 1009.9 |
| 20260507085310 | 51 | 239 | 7.8 | 23.5 | 0.00 | 0.17 | 0.00 | 88 | 1009.9 |
| 20260507084610 | 51 | 227 | 9.6 | 23.5 | 0.00 | 0.17 | 0.00 | 88 | 1009.7 |
| 20260507084405 | 51 | 225 | 10.4 | 23.5 | 0.00 | 0.17 | 0.00 | 88 | 1009.7 |
| 20260507083907 | 51 | 220 | 7.0 | 17.4 | 0.00 | 0.17 | 0.00 | 89 | 1009.7 |
| 20260507083405 | 51 | 228 | 7.8 | 17.4 | 0.00 | 0.17 | 0.00 | 89 | 1009.7 |
| 20260507083209 | 51 | 215 | 9.6 | 17.4 | 0.00 | 0.17 | 0.00 | 89 | 1009.6 |
| 20260507082405 | 51 | 224 | 2.6 | 16.5 | 0.00 | 0.17 | 0.00 | 90 | 1009.5 |
| 20260507081810 | 50 | 218 | 7.8 | 17.4 | 0.00 | 0.17 | 0.00 | 90 | 1009.4 |
| 20260507081405 | 50 | 219 | 9.6 | 17.4 | 0.00 | 0.17 | 0.00 | 90 | 1009.5 |
| 20260507080405 | 50 | 226 | 7.0 | 14.8 | 0.00 | 0.17 | 0.00 | 91 | 1009.4 |
| 20260507075707 | 50 | 219 | 3.5 | 14.8 | 0.00 | 0.17 | 0.00 | 92 | 1009.2 |
| 20260507075405 | 50 | 219 | 7.0 | 14.8 | 0.00 | 0.17 | 0.00 | 92 | 1009.2 |
| 20260507075007 | 49 | 233 | 5.2 | 12.2 | 0.00 | 0.17 | 0.00 | 92 | 1009.2 |
| 20260507074405 | 49 | 214 | 3.5 | 12.2 | 0.00 | 0.17 | 0.00 | 92 | 1009.2 |
| 20260507074310 | 49 | 211 | 3.5 | 12.2 | 0.00 | 0.17 | 0.00 | 92 | 1009.1 |
| 20260507073607 | 49 | 212 | 5.2 | 14.8 | 0.00 | 0.17 | 0.00 | 92 | 1009.1 |
| 20260507073405 | 49 | 221 | 7.8 | 14.8 | 0.00 | 0.17 | 0.00 | 92 | 1009.1 |
| 20260507072405 | 49 | 204 | 3.5 | 12.2 | 0.00 | 0.17 | 0.00 | 92 | 1009.0 |
| 20260507071509 | 49 | 202 | 2.6 | 13.9 | 0.00 | 0.17 | 0.00 | 92 | 1009.0 |
| 20260507071405 | 49 | 218 | 3.5 | 13.9 | 0.00 | 0.17 | 0.00 | 92 | 1008.9 |
| 20260507070809 | 49 | 222 | 7.0 | 13.9 | 0.00 | 0.17 | 0.00 | 92 | 1008.9 |
| 20260507070405 | 48 | 201 | 5.2 | 13.9 | 0.00 | 0.17 | 0.00 | 92 | 1008.9 |
| 20260507070109 | 48 | 204 | 5.2 | 13.9 | 0.00 | 0.17 | 0.00 | 92 | 1008.9 |
| 20260507065405 | 48 | 231 | 2.6 | 10.4 | 0.00 | 0.17 | 0.00 | 92 | 1008.7 |
| 20260507064707 | 48 | 215 | 2.6 | 13.9 | 0.00 | 0.17 | 0.00 | 92 | 1008.7 |
| 20260507064405 | 48 | 213 | 5.2 | 14.8 | 0.00 | 0.17 | 0.00 | 91 | 1008.7 |
| 20260507064007 | 48 | 223 | 7.8 | 14.8 | 0.00 | 0.17 | 0.00 | 91 | 1008.7 |
| 20260507063405 | 48 | 224 | 5.2 | 13.9 | 0.00 | 0.17 | 0.00 | 91 | 1008.7 |
| 20260507063309 | 48 | 212 | 5.2 | 13.9 | 0.00 | 0.17 | 0.00 | 91 | 1008.7 |
| 20260507062607 | 49 | 208 | 3.5 | 13.9 | 0.00 | 0.17 | 0.00 | 90 | 1008.5 |
| 20260507062405 | 49 | 219 | 3.5 | 13.9 | 0.00 | 0.17 | 0.00 | 90 | 1008.5 |
| 20260507061909 | 49 | 212 | 7.0 | 14.8 | 0.00 | 0.17 | 0.00 | 90 | 1008.5 |
| 20260507061405 | 49 | 219 | 7.8 | 14.8 | 0.00 | 0.17 | 0.00 | 90 | 1008.2 |
| 20260507060507 | 49 | 192 | 5.2 | 16.5 | 0.00 | 0.17 | 0.00 | 91 | 1008.2 |
| 20260507060405 | 49 | 200 | 10.4 | 16.5 | 0.00 | 0.17 | 0.00 | 91 | 1008.1 |
| 20260507055405 | 49 | 223 | 7.0 | 17.4 | 0.00 | 0.17 | 0.00 | 91 | 1007.9 |
| 20260507055109 | 49 | 204 | 3.5 | 14.8 | 0.00 | 0.17 | 0.00 | 92 | 1007.9 |
| 20260507054405 | 49 | 209 | 3.5 | 13.9 | 0.00 | 0.17 | 0.00 | 92 | 1007.7 |
| 20260507053405 | 48 | 227 | 2.6 | 13.9 | 0.00 | 0.17 | 0.00 | 92 | 1007.7 |
| 20260507053009 | 48 | 235 | 3.5 | 13.9 | 0.00 | 0.17 | 0.00 | 92 | 1007.7 |
| 20260507052405 | 48 | 232 | 7.0 | 13.9 | 0.00 | 0.17 | 0.00 | 92 | 1007.7 |
| 20260507052307 | 48 | 226 | 7.0 | 13.9 | 0.00 | 0.17 | 0.00 | 92 | 1007.7 |
| 20260507051607 | 48 | 223 | 7.0 | 14.8 | 0.00 | 0.17 | 0.00 | 92 | 1007.7 |
| 20260507051405 | 48 | 228 | 7.0 | 14.8 | 0.00 | 0.17 | 0.00 | 91 | 1007.7 |
| 20260507050907 | 48 | 225 | 7.0 | 13.9 | 0.00 | 0.17 | 0.00 | 92 | 1007.6 |
| 20260507050405 | 48 | 241 | 2.6 | 14.8 | 0.00 | 0.17 | 0.00 | 92 | 1007.6 |
| 20260507050207 | 48 | 232 | 3.5 | 14.8 | 0.00 | 0.17 | 0.00 | 91 | 1007.6 |
| 20260507045509 | 48 | 237 | 5.2 | 12.2 | 0.00 | 0.17 | 0.00 | 91 | 1007.6 |
| 20260507045405 | 48 | 237 | 5.2 | 12.2 | 0.00 | 0.17 | 0.00 | 92 | 1007.7 |
| 20260507044809 | 48 | 222 | 3.5 | 14.8 | 0.00 | 0.17 | 0.00 | 92 | 1007.6 |
| 20260507044405 | 48 | 234 | 3.5 | 14.8 | 0.00 | 0.17 | 0.00 | 92 | 1007.6 |
| 20260507044110 | 48 | 227 | 5.2 | 14.8 | 0.00 | 0.17 | 0.00 | 92 | 1007.6 |
| 20260507043405 | 48 | 218 | 2.6 | 13.9 | 0.00 | 0.17 | 0.00 | 91 | 1007.5 |
| 20260507042707 | 48 | 239 | 5.2 | 13.9 | 0.00 | 0.17 | 0.00 | 91 | 1007.4 |
| 20260507042405 | 48 | 242 | 5.2 | 13.9 | 0.00 | 0.16 | 0.00 | 91 | 1007.2 |
| 20260507041405 | 48 | 268 | 5.2 | 14.8 | 0.00 | 0.16 | 0.00 | 91 | 1007.2 |
| 20260507041309 | 48 | 253 | 5.2 | 14.8 | 0.00 | 0.16 | 0.00 | 91 | 1007.2 |
| 20260507040405 | 48 | 234 | 5.2 | 13.9 | 0.00 | 0.16 | 0.00 | 92 | 1007.1 |
| 20260507035907 | 48 | 242 | 7.0 | 10.4 | 0.00 | 0.16 | 0.00 | 92 | 1007.0 |
| 20260507035405 | 48 | 234 | 3.5 | 10.4 | 0.00 | 0.16 | 0.00 | 92 | 1007.0 |
| 20260507034405 | 49 | 231 | 7.0 | 12.2 | 0.00 | 0.17 | 0.00 | 91 | 1007.0 |
| 20260507033405 | 49 | 246 | 2.6 | 10.4 | 0.00 | 0.17 | 0.00 | 91 | 1006.7 |
| 20260507032405 | 49 | 241 | 3.5 | 14.8 | 0.00 | 0.17 | 0.00 | 91 | 1006.7 |
| 20260507031707 | 49 | 232 | 5.2 | 14.8 | 0.00 | 0.17 | 0.00 | 91 | 1006.9 |
| 20260507031405 | 49 | 252 | 3.5 | 12.2 | 0.00 | 0.17 | 0.00 | 91 | 1006.7 |
| 20260507030405 | 49 | 251 | 2.6 | 9.6 | 0.00 | 0.17 | 0.00 | 92 | 1006.7 |
| 20260507025607 | 50 | 243 | 3.5 | 10.4 | 0.00 | 0.17 | 0.00 | 92 | 1006.7 |
| 20260507025405 | 50 | 259 | 3.5 | 10.4 | 0.00 | 0.17 | 0.00 | 92 | 1006.7 |
| 20260507024909 | 50 | 259 | 5.2 | 10.4 | 0.00 | 0.17 | 0.00 | 92 | 1006.7 |
| 20260507024405 | 50 | 238 | 2.6 | 7.8 | 0.00 | 0.17 | 0.00 | 92 | 1006.6 |
| 20260507024207 | 50 | 253 | 0.9 | 9.6 | 0.00 | 0.17 | 0.00 | 92 | 1006.5 |
| 20260507023509 | 50 | 253 | 5.2 | 9.6 | 0.00 | 0.17 | 0.00 | 92 | 1006.6 |
| 20260507023405 | 50 | 254 | 5.2 | 9.6 | 0.00 | 0.17 | 0.00 | 92 | 1006.7 |
| 20260507022405 | 50 | 217 | 0.9 | 7.8 | 0.00 | 0.17 | 0.00 | 92 | 1006.7 |
| 20260507022109 | 50 | 236 | 2.6 | 7.8 | 0.00 | 0.17 | 0.00 | 92 | 1006.7 |
| 20260507021405 | 50 | 0 | 0.0 | 12.2 | 0.00 | 0.17 | 0.00 | 92 | 1006.4 |
| 20260507020709 | 50 | 219 | 3.5 | 12.2 | 0.00 | 0.17 | 0.00 | 92 | 1006.4 |
| 20260507020405 | 50 | 199 | 2.6 | 12.2 | 0.00 | 0.17 | 0.00 | 92 | 1006.2 |
| 20260507015405 | 50 | 221 | 2.6 | 7.8 | 0.00 | 0.17 | 0.00 | 92 | 1006.2 |
| 20260507014405 | 50 | 225 | 5.2 | 13.9 | 0.00 | 0.17 | 0.00 | 92 | 1006.2 |
| 20260507013907 | 51 | 236 | 0.9 | 10.4 | 0.00 | 0.17 | 0.00 | 92 | 1006.2 |
| 20260507013405 | 51 | 226 | 3.5 | 10.4 | 0.00 | 0.17 | 0.00 | 92 | 1006.4 |
| 20260507013207 | 50 | 221 | 3.5 | 10.4 | 0.00 | 0.17 | 0.00 | 92 | 1006.2 |
| 20260507012405 | 51 | 223 | 0.9 | 12.2 | 0.00 | 0.17 | 0.00 | 92 | 1006.2 |
| 20260507011405 | 51 | 249 | 3.5 | 13.9 | 0.00 | 0.17 | 0.00 | 92 | 1006.2 |
| 20260507011109 | 51 | 225 | 5.2 | 13.9 | 0.00 | 0.17 | 0.00 | 92 | 1006.2 |
| 20260507010405 | 51 | 214 | 2.6 | 13.9 | 0.00 | 0.17 | 0.00 | 92 | 1006.2 |
| 20260507005405 | 51 | 230 | 3.5 | 12.2 | 0.00 | 0.17 | 0.00 | 93 | 1006.2 |
| 20260507005009 | 51 | 214 | 3.5 | 12.2 | 0.00 | 0.17 | 0.00 | 92 | 1006.2 |
| 20260507004405 | 51 | 224 | 2.6 | 12.2 | 0.00 | 0.17 | 0.00 | 92 | 1006.2 |
| 20260507004309 | 51 | 223 | 3.5 | 12.2 | 0.00 | 0.17 | 0.00 | 92 | 1006.2 |
| 20260507003609 | 51 | 232 | 3.5 | 12.2 | 0.00 | 0.17 | 0.00 | 92 | 1006.2 |
| 20260507003405 | 51 | 210 | 2.6 | 12.2 | 0.00 | 0.17 | 0.00 | 92 | 1006.1 |
| 20260507002405 | 51 | 0 | 0.0 | 7.0 | 0.00 | 0.17 | 0.00 | 92 | 1006.1 |
| 20260507001510 | 51 | 216 | 0.9 | 10.4 | 0.00 | 0.17 | 0.00 | 92 | 1006.2 |
| 20260507001405 | 51 | 212 | 0.9 | 10.4 | 0.00 | 0.17 | 0.00 | 92 | 1006.2 |
| 20260507000405 | 51 | 214 | 3.5 | 10.4 | 0.00 | 0.17 | 0.00 | 92 | 1006.2 |
| 20260506235405 | 51 | 220 | 2.6 | 9.6 | 0.00 | 0.17 | 0.00 | 92 | 1006.2 |
| 20260506234405 | 51 | 226 | 7.0 | 13.9 | 0.00 | 0.17 | 0.00 | 92 | 1006.2 |
| 20260506233405 | 51 | 220 | 7.0 | 14.8 | 0.00 | 0.16 | 0.00 | 92 | 1006.2 |
| 20260506233309 | 51 | 221 | 3.5 | 13.9 | 0.00 | 0.16 | 0.00 | 92 | 1006.2 |
| 20260506232405 | 52 | 224 | 2.6 | 9.6 | 0.00 | 0.16 | 0.00 | 92 | 1006.2 |
| 20260506231909 | 52 | 250 | 0.9 | 12.2 | 0.00 | 0.16 | 0.00 | 92 | 1006.2 |
| 20260506231405 | 52 | 250 | 3.5 | 12.2 | 0.00 | 0.16 | 0.00 | 92 | 1006.1 |
| 20260506230509 | 52 | 0 | 0.0 | 7.0 | 0.00 | 0.16 | 0.00 | 92 | 1006.1 |
| 20260506230405 | 52 | 0 | 0.0 | 7.0 | 0.00 | 0.16 | 0.00 | 92 | 1006.1 |
| 20260506225807 | 52 | 199 | 0.9 | 7.0 | 0.00 | 0.16 | 0.00 | 92 | 1006.0 |
| 20260506225405 | 52 | 228 | 0.9 | 9.6 | 0.00 | 0.16 | 0.00 | 92 | 1006.0 |
| 20260506224405 | 52 | 248 | 0.9 | 7.0 | 0.00 | 0.16 | 0.00 | 92 | 1006.0 |
| 20260506223405 | 52 | 214 | 0.9 | 7.0 | 0.00 | 0.16 | 0.00 | 92 | 1005.9 |
| 20260506222405 | 52 | 248 | 3.5 | 9.6 | 0.00 | 0.16 | 0.00 | 92 | 1005.7 |
| 20260506222307 | 52 | 260 | 2.6 | 9.6 | 0.00 | 0.16 | 0.00 | 92 | 1005.7 |
| 20260506221609 | 52 | 265 | 2.6 | 9.6 | 0.00 | 0.16 | 0.00 | 92 | 1005.9 |
| 20260506221405 | 52 | 256 | 2.6 | 9.6 | 0.00 | 0.16 | 0.00 | 92 | 1005.7 |
| 20260506220405 | 52 | 0 | 0.0 | 5.2 | 0.02 | 0.16 | 0.00 | 92 | 1005.7 |
| 20260506220207 | 52 | 0 | 0.0 | 5.2 | 0.02 | 0.16 | 0.00 | 92 | 1005.7 |
| 20260506215405 | 52 | 0 | 0.0 | 5.2 | 0.07 | 0.16 | 0.00 | 92 | 1005.7 |
| 20260506214405 | 52 | 248 | 0.9 | 7.0 | 0.10 | 0.16 | 0.00 | 92 | 1005.7 |
| 20260506214109 | 52 | 252 | 2.6 | 7.0 | 0.10 | 0.16 | 0.00 | 92 | 1005.7 |
| 20260506213405 | 52 | 243 | 3.5 | 9.6 | 0.10 | 0.15 | 0.00 | 92 | 1005.9 |
| 20260506212405 | 52 | 231 | 2.6 | 9.6 | 0.11 | 0.15 | 0.00 | 92 | 1005.9 |
| 20260506212007 | 52 | 232 | 0.9 | 10.4 | 0.11 | 0.15 | 0.00 | 92 | 1005.9 |
| 20260506211405 | 52 | 232 | 3.5 | 10.4 | 0.11 | 0.14 | 0.00 | 91 | 1005.9 |
| 20260506211309 | 52 | 240 | 3.5 | 10.4 | 0.12 | 0.14 | 0.00 | 91 | 1005.7 |
| 20260506210609 | 52 | 241 | 3.5 | 10.4 | 0.10 | 0.14 | 0.00 | 91 | 1005.9 |
| 20260506210405 | 52 | 238 | 3.5 | 13.9 | 0.10 | 0.12 | 0.00 | 91 | 1005.9 |
| 20260506205909 | 52 | 223 | 3.5 | 13.9 | 0.08 | 0.10 | 0.00 | 91 | 1005.7 |
| 20260506205405 | 53 | 214 | 2.6 | 13.9 | 0.07 | 0.09 | 0.00 | 91 | 1005.9 |
| 20260506205209 | 53 | 225 | 3.5 | 14.8 | 0.07 | 0.08 | 0.00 | 91 | 1005.9 |
| 20260506204509 | 53 | 230 | 5.2 | 14.8 | 0.02 | 0.05 | 0.00 | 90 | 1005.7 |
| 20260506204405 | 53 | 221 | 5.2 | 14.8 | 0.02 | 0.05 | 0.00 | 90 | 1005.7 |
| 20260506203405 | 53 | 220 | 0.9 | 5.2 | 0.01 | 0.03 | 0.00 | 90 | 1005.7 |
| 20260506202405 | 53 | 0 | 0.0 | 3.5 | 0.00 | 0.02 | 0.00 | 90 | 1005.6 |
| 20260506201405 | 53 | 250 | 2.6 | 5.2 | 0.00 | 0.02 | 0.00 | 89 | 1005.6 |
| 20260506201009 | 53 | 0 | 0.0 | 7.0 | 0.00 | 0.01 | 0.00 | 89 | 1005.5 |
| 20260506200405 | 53 | 206 | 0.9 | 7.0 | 0.00 | 0.01 | 0.00 | 89 | 1005.5 |
| 20260506200307 | 53 | 205 | 2.6 | 7.0 | 0.00 | 0.01 | 0.00 | 89 | 1005.5 |
| 20260506195609 | 53 | 222 | 0.9 | 9.6 | 0.00 | 0.01 | 0.00 | 89 | 1005.2 |
| 20260506195405 | 53 | 236 | 0.9 | 9.6 | 0.00 | 0.01 | 0.00 | 89 | 1005.2 |
| 20260506194909 | 53 | 224 | 2.6 | 9.6 | 0.00 | 0.01 | 0.00 | 89 | 1005.0 |
| 20260506194405 | 54 | 218 | 3.5 | 7.0 | 0.00 | 0.01 | 0.00 | 89 | 1004.9 |
| 20260506194207 | 54 | 224 | 3.5 | 7.0 | 0.00 | 0.01 | 0.00 | 89 | 1004.9 |
| 20260506193509 | 54 | 0 | 0.0 | 2.6 | 0.00 | 0.01 | 0.00 | 89 | 1004.7 |
| 20260506193405 | 54 | 0 | 0.0 | 2.6 | 0.00 | 0.01 | 0.00 | 89 | 1004.7 |
| 20260506192405 | 53 | 285 | 0.9 | 5.2 | 0.00 | 0.01 | 0.00 | 90 | 1004.6 |
| 20260506191405 | 53 | 318 | 0.9 | 3.5 | 0.00 | 0.01 | 0.00 | 90 | 1004.5 |
| 20260506190405 | 53 | 0 | 0.0 | 5.2 | 0.00 | 0.01 | 0.00 | 90 | 1004.4 |
| 20260506190009 | 53 | 0 | 0.0 | 5.2 | 0.00 | 0.01 | 0.00 | 89 | 1004.4 |
| 20260506185405 | 54 | 0 | 0.0 | 0.0 | 0.00 | 0.01 | 0.00 | 88 | 1004.4 |
| 20260506185307 | 54 | 0 | 0.0 | 0.0 | 0.00 | 0.01 | 0.00 | 88 | 1004.4 |
| 20260506184607 | 54 | 0 | 0.0 | 0.0 | 0.00 | 0.01 | 0.00 | 89 | 1004.2 |
| 20260506184405 | 54 | 0 | 0.0 | 7.0 | 0.00 | 0.01 | 0.00 | 89 | 1004.2 |
| 20260506183909 | 54 | 291 | 2.6 | 7.0 | 0.00 | 0.01 | 0.00 | 89 | 1004.1 |
| 20260506183405 | 54 | 0 | 0.0 | 3.5 | 0.00 | 0.01 | 0.00 | 89 | 1004.0 |
| 20260506183207 | 54 | 0 | 0.0 | 3.5 | 0.00 | 0.01 | 0.00 | 90 | 1004.0 |
| 20260506182405 | 54 | 318 | 0.9 | 5.2 | 0.00 | 0.02 | 0.00 | 90 | 1003.9 |
| 20260506181807 | 54 | 324 | 0.9 | 5.2 | 0.00 | 0.02 | 0.00 | 90 | 1003.7 |
| 20260506181405 | 54 | 322 | 0.9 | 5.2 | 0.00 | 0.03 | 0.00 | 89 | 1003.7 |
| 20260506180405 | 54 | 0 | 0.0 | 2.6 | 0.00 | 0.07 | 0.00 | 89 | 1003.7 |
| 20260506175707 | 54 | 0 | 0.0 | 3.5 | 0.00 | 0.10 | 0.00 | 89 | 1004.0 |
| 20260506175405 | 54 | 324 | 0.9 | 3.5 | 0.00 | 0.14 | 0.00 | 89 | 1004.1 |
| 20260506175007 | 54 | 0 | 0.0 | 2.6 | 0.00 | 0.20 | 0.00 | 88 | 1003.9 |
| 20260506174405 | 55 | 0 | 0.0 | 2.6 | 0.00 | 0.28 | 0.00 | 87 | 1003.9 |
| 20260506174309 | 55 | 0 | 0.0 | 2.6 | 0.00 | 0.28 | 0.00 | 87 | 1003.9 |
| 20260506173611 | 56 | 0 | 0.0 | 2.6 | 0.00 | 0.33 | 0.00 | 84 | 1004.0 |
| 20260506173405 | 56 | 0 | 0.0 | 2.6 | 0.00 | 0.33 | 0.00 | 83 | 1004.0 |
| 20260506172907 | 57 | 0 | 0.0 | 5.2 | 0.00 | 0.32 | 0.00 | 82 | 1004.1 |
| 20260506172405 | 57 | 259 | 0.9 | 7.0 | 0.00 | 0.32 | 0.00 | 81 | 1004.0 |
| 20260506172207 | 57 | 0 | 0.0 | 7.0 | 0.00 | 0.32 | 0.00 | 81 | 1004.0 |
| 20260506171507 | 57 | 268 | 2.6 | 10.4 | 0.00 | 0.32 | 0.00 | 80 | 1003.7 |
| 20260506171405 | 57 | 265 | 2.6 | 10.4 | 0.00 | 0.32 | 0.00 | 80 | 1003.7 |
| 20260506170809 | 57 | 303 | 2.6 | 9.6 | 0.00 | 0.32 | 0.00 | 79 | 1003.6 |
| 20260506170405 | 58 | 296 | 3.5 | 12.2 | 0.00 | 0.32 | 0.00 | 78 | 1003.6 |
| 20260506170109 | 58 | 0 | 0.0 | 12.2 | 0.00 | 0.32 | 0.00 | 77 | 1003.6 |
| 20260506165405 | 59 | 316 | 3.5 | 9.6 | 0.00 | 0.32 | 0.00 | 75 | 1003.5 |
| 20260506164405 | 59 | 304 | 3.5 | 9.6 | 0.00 | 0.32 | 0.00 | 72 | 1003.5 |
| 20260506164007 | 60 | 304 | 2.6 | 7.8 | 0.00 | 0.32 | 0.00 | 72 | 1003.5 |
| 20260506163405 | 60 | 317 | 2.6 | 7.0 | 0.00 | 0.32 | 0.00 | 71 | 1003.4 |
| 20260506162609 | 60 | 320 | 0.9 | 7.8 | 0.00 | 0.32 | 0.00 | 70 | 1003.4 |
| 20260506162405 | 60 | 319 | 0.9 | 7.8 | 0.00 | 0.32 | 0.00 | 69 | 1003.4 |
| 20260506161405 | 61 | 314 | 2.6 | 7.8 | 0.00 | 0.32 | 0.00 | 68 | 1003.4 |
| 20260506161207 | 61 | 308 | 2.6 | 5.2 | 0.00 | 0.32 | 0.00 | 68 | 1003.5 |
| 20260506160507 | 61 | 326 | 0.9 | 5.2 | 0.00 | 0.32 | 0.00 | 68 | 1003.5 |
| 20260506160405 | 61 | 0 | 0.0 | 3.5 | 0.00 | 0.32 | 0.00 | 68 | 1003.5 |
| 20260506155809 | 61 | 0 | 0.0 | 2.6 | 0.00 | 0.32 | 0.00 | 68 | 1003.5 |
| 20260506155405 | 61 | 0 | 0.0 | 2.6 | 0.00 | 0.32 | 0.00 | 69 | 1003.5 |
| 20260506154405 | 61 | 0 | 0.0 | 5.2 | 0.00 | 0.32 | 0.00 | 69 | 1003.6 |
| 20260506153405 | 61 | 0 | 0.0 | 5.2 | 0.00 | 0.32 | 0.00 | 69 | 1003.6 |
| 20260506152405 | 62 | 324 | 0.9 | 7.8 | 0.00 | 0.32 | 0.00 | 66 | 1003.5 |
| 20260506152307 | 62 | 324 | 2.6 | 7.8 | 0.00 | 0.32 | 0.00 | 66 | 1003.6 |
| 20260506151607 | 62 | 0 | 0.0 | 5.2 | 0.00 | 0.32 | 0.00 | 66 | 1003.5 |
| 20260506151405 | 62 | 0 | 0.0 | 5.2 | 0.00 | 0.32 | 0.00 | 66 | 1003.6 |
| 20260506150907 | 62 | 297 | 0.9 | 5.2 | 0.00 | 0.32 | 0.00 | 65 | 1003.5 |
| 20260506150405 | 62 | 0 | 0.0 | 2.6 | 0.00 | 0.32 | 0.00 | 63 | 1003.6 |
| 20260506150207 | 62 | 0 | 0.0 | 3.5 | 0.00 | 0.32 | 0.00 | 63 | 1003.6 |
| 20260506145405 | 62 | 257 | 0.9 | 7.0 | 0.00 | 0.32 | 0.00 | 64 | 1003.7 |
| 20260506144809 | 62 | 311 | 0.9 | 7.8 | 0.00 | 0.32 | 0.00 | 65 | 1003.7 |
| 20260506144405 | 62 | 307 | 0.9 | 7.8 | 0.00 | 0.32 | 0.00 | 65 | 1003.7 |
| 20260506143405 | 63 | 233 | 2.6 | 7.0 | 0.00 | 0.32 | 0.00 | 62 | 1003.7 |
| 20260506142707 | 62 | 221 | 0.9 | 3.5 | 0.00 | 0.32 | 0.00 | 62 | 1003.6 |
| 20260506142405 | 62 | 0 | 0.0 | 2.6 | 0.00 | 0.32 | 0.00 | 62 | 1003.7 |
| 20260506142007 | 63 | 0 | 0.0 | 0.9 | 0.00 | 0.32 | 0.00 | 64 | 1003.6 |
| 20260506141405 | 63 | 239 | 2.6 | 7.8 | 0.00 | 0.32 | 0.00 | 61 | 1003.7 |
| 20260506140607 | 62 | 195 | 3.5 | 7.8 | 0.00 | 0.32 | 0.00 | 62 | 1003.7 |
| 20260506140405 | 62 | 178 | 0.9 | 7.8 | 0.00 | 0.32 | 0.00 | 63 | 1003.7 |
| 20260506135907 | 62 | 208 | 2.6 | 9.6 | 0.00 | 0.32 | 0.00 | 62 | 1004.0 |
| 20260506135405 | 62 | 153 | 3.5 | 9.6 | 0.00 | 0.32 | 0.00 | 62 | 1004.0 |
| 20260506135207 | 62 | 168 | 2.6 | 7.0 | 0.00 | 0.32 | 0.00 | 61 | 1004.0 |
| 20260506134507 | 62 | 212 | 2.6 | 7.0 | 0.00 | 0.32 | 0.00 | 62 | 1004.0 |
| 20260506134405 | 62 | 209 | 3.5 | 7.0 | 0.00 | 0.32 | 0.00 | 62 | 1004.1 |
| 20260506133809 | 61 | 0 | 0.0 | 7.0 | 0.00 | 0.32 | 0.00 | 64 | 1004.1 |
| 20260506133405 | 62 | 207 | 2.6 | 10.4 | 0.00 | 0.32 | 0.00 | 62 | 1004.1 |
| 20260506133109 | 61 | 190 | 0.9 | 10.4 | 0.00 | 0.32 | 0.00 | 62 | 1004.2 |
| 20260506132405 | 61 | 205 | 2.6 | 12.2 | 0.00 | 0.32 | 0.00 | 63 | 1005.2 |
| 20260506131707 | 61 | 174 | 2.6 | 10.4 | 0.00 | 0.32 | 0.00 | 63 | 1005.2 |
| 20260506131405 | 61 | 238 | 2.6 | 10.4 | 0.00 | 0.32 | 0.00 | 62 | 1005.2 |
| 20260506131007 | 61 | 261 | 5.2 | 10.4 | 0.00 | 0.32 | 0.00 | 62 | 1005.2 |
| 20260506130405 | 61 | 207 | 2.6 | 13.9 | 0.00 | 0.32 | 0.00 | 61 | 1005.2 |
| 20260506130307 | 61 | 206 | 2.6 | 13.9 | 0.00 | 0.32 | 0.00 | 61 | 1005.4 |
| 20260506125405 | 62 | 198 | 5.2 | 13.9 | 0.00 | 0.32 | 0.00 | 61 | 1005.4 |
| 20260506124405 | 62 | 185 | 0.9 | 9.6 | 0.00 | 0.32 | 0.00 | 62 | 1005.2 |
| 20260506124207 | 62 | 211 | 2.6 | 9.6 | 0.00 | 0.32 | 0.00 | 63 | 1005.2 |
| 20260506123507 | 61 | 142 | 2.6 | 13.9 | 0.00 | 0.32 | 0.00 | 62 | 1005.2 |
| 20260506123405 | 61 | 144 | 3.5 | 13.9 | 0.00 | 0.32 | 0.00 | 61 | 1005.2 |
| 20260506122809 | 61 | 141 | 7.0 | 13.9 | 0.00 | 0.32 | 0.00 | 62 | 1005.2 |
| 20260506122405 | 62 | 202 | 2.6 | 12.2 | 0.00 | 0.32 | 0.00 | 63 | 1005.2 |
| 20260506122109 | 62 | 222 | 2.6 | 12.2 | 0.00 | 0.32 | 0.00 | 63 | 1005.4 |
| 20260506121405 | 62 | 206 | 2.6 | 12.2 | 0.00 | 0.32 | 0.00 | 66 | 1005.4 |
| 20260506120405 | 61 | 210 | 0.9 | 7.8 | 0.00 | 0.32 | 0.00 | 70 | 1005.4 |
| 20260506120007 | 60 | 0 | 0.0 | 10.4 | 0.00 | 0.32 | 0.00 | 69 | 1005.4 |
| 20260506115405 | 61 | 207 | 3.5 | 13.9 | 0.00 | 0.32 | 0.00 | 68 | 1005.6 |
| 20260506115307 | 61 | 221 | 3.5 | 13.9 | 0.00 | 0.32 | 0.00 | 68 | 1005.5 |
| 20260506114609 | 61 | 214 | 0.9 | 13.9 | 0.00 | 0.32 | 0.00 | 69 | 1005.6 |
| 20260506114405 | 61 | 218 | 3.5 | 14.8 | 0.00 | 0.32 | 0.00 | 70 | 1005.6 |
| 20260506113405 | 60 | 148 | 5.2 | 10.4 | 0.00 | 0.32 | 0.00 | 71 | 1005.6 |
| 20260506113207 | 60 | 156 | 5.2 | 10.4 | 0.00 | 0.32 | 0.00 | 71 | 1005.6 |
| 20260506112509 | 60 | 235 | 5.2 | 10.4 | 0.00 | 0.32 | 0.00 | 71 | 1005.7 |
| 20260506112404 | 60 | 238 | 3.5 | 10.4 | 0.00 | 0.32 | 0.00 | 72 | 1005.7 |
| 20260506111809 | 60 | 248 | 5.2 | 12.2 | 0.00 | 0.32 | 0.00 | 71 | 1005.7 |
| 20260506111405 | 60 | 228 | 5.2 | 12.2 | 0.00 | 0.32 | 0.00 | 71 | 1005.7 |
| 20260506111107 | 61 | 243 | 3.5 | 12.2 | 0.00 | 0.32 | 0.00 | 71 | 1005.6 |
| 20260506110405 | 60 | 156 | 5.2 | 10.4 | 0.00 | 0.32 | 0.00 | 70 | 1005.7 |
| 20260506105405 | 59 | 147 | 0.9 | 13.9 | 0.00 | 0.32 | 0.00 | 73 | 1005.7 |
| 20260506105007 | 59 | 195 | 5.2 | 12.2 | 0.00 | 0.32 | 0.00 | 72 | 1005.7 |
| 20260506104405 | 59 | 197 | 7.0 | 10.4 | 0.00 | 0.32 | 0.00 | 72 | 1005.7 |
| 20260506104309 | 59 | 213 | 5.2 | 10.4 | 0.00 | 0.32 | 0.00 | 72 | 1005.7 |
| 20260506103607 | 59 | 165 | 3.5 | 13.9 | 0.00 | 0.32 | 0.00 | 74 | 1005.9 |
| 20260506103405 | 59 | 178 | 5.2 | 13.9 | 0.00 | 0.32 | 0.00 | 74 | 1005.9 |
| 20260506102907 | 59 | 189 | 3.5 | 12.2 | 0.00 | 0.32 | 0.00 | 74 | 1005.9 |
| 20260506102405 | 59 | 197 | 3.5 | 12.2 | 0.00 | 0.32 | 0.00 | 75 | 1005.9 |
| 20260506101509 | 58 | 172 | 3.5 | 9.6 | 0.00 | 0.32 | 0.00 | 77 | 1005.9 |
| 20260506101404 | 58 | 166 | 3.5 | 9.6 | 0.00 | 0.32 | 0.00 | 77 | 1005.9 |
| 20260506100809 | 58 | 196 | 3.5 | 10.4 | 0.00 | 0.32 | 0.00 | 75 | 1005.7 |
| 20260506100405 | 58 | 209 | 0.9 | 10.4 | 0.00 | 0.32 | 0.00 | 77 | 1005.7 |